Aérodrome :
LOGIN :

S'inscrire | Disclaimer

   EN    FR    IT 

 










Légende :    VFR   VFR Marginal   IFR   IFR Intensif   IFR Très Intensif
Visi : 
Plafond : 
>= 8 km
>= 3000ft
5 à 8 km
1000 à 3000 ft
1500m à 5 km
500 à 1000 ft
800 à 1500m
200 à 500 ft
< 800m
< 200 ft
Symboles :   Orages  Brouillard  Fortes neiges  Fortes précipitations  Vent > 20 kt
SIGMETs :   Divers  Orages  Givrage  Turbulence  Onde Orograph.  Cendres Volcan.







- Altitude de l'aérodrome : 598 ft
- Code IATA : BQH
- Voir les cartes d'approche


EGKB - Biggin Hill

DERNIER METAR :
  • 212050Z VRB01KT CAVOK 13/03 Q1029

METARs EXPIRÉS :
  • 212020Z 01005KT CAVOK 13/03 Q1028
  • 211950Z 01005KT CAVOK 14/04 Q1028
  • 211920Z 01006KT CAVOK 16/03 Q1028
  • 211850Z 36008KT CAVOK 17/03 Q1028
  • 211820Z 35006KT CAVOK 17/03 Q1028

TAF TAF EGKB
Valide du 21 à 18h jusqu'au 21 à 22h UTC


211703Z 2118/2122 34007KT 9999 FEW045
Pas de NOTAMs connus pour ce terrain.



MET'MAP, la Météo Aéronautique d'un coup d'oeil ! - Copyright ORBIFLY Décembre 2007 - Disclaimer

ORBIFLY MET'MAP TEAM :

Programmation & Développement : Alexandra Zaïnal
Conception & Développement : Baudouin d'Aumeries
Co-Programmation & Développement : Marc-Olivier Méhu
Soutien technique & logistique : Manuel Goepfert

Contact : metmap@orbifly.com




SOURCES & CREDITS :

   NOAA